This demonstration page uses our WeatherBlox Daily Observations layout. Learn more.

40.92945, -100.16068

Hourly Observations for August 15, 2017

Temp ( °F °C ) Dew Point ( °F °C ) Humidity (%) Winds ( mph kmh ) Pressure ( in mb ) Visibility ( mi km ) Precip ( " mm )
12:15 am 00:15 Clear 72 22 68 20 88 88 E 10 17 29.71 1006 10 16.09344 0 0
12:35 am 00:35 Clear 71 21.8 68 19.8 88 88 ESE 9 15 29.71 1006 10 16.09344 0 0
12:55 am 00:55 Clear 71 21.7 67 19.7 88 88 ESE 8 13 29.71 1006 10 16.09344 0 0
1:15 am 01:15 Clear 71 21.5 67 19.5 88 88 ESE 7 11 29.71 1006 10 16.09344 0 0
1:35 am 01:35 Clear 70 21.2 67 19.5 90 90 SE 8 13 29.74 1007 10 16.09344 0 0
1:55 am 01:55 Clear 70 21.2 67 19.5 90 90 ESE 8 13 29.74 1007 10 16.09344 0 0
2:15 am 02:15 Clear 70 21.1 67 19.5 91 91 ESE 6 9 29.74 1007 7 11.265408 0 0
2:35 am 02:35 Clear 69 20.7 67 19.4 92 92 ESE 5 7 29.74 1007 7 11.265408 0 0
2:55 am 02:55 Clear 69 20.5 67 19.2 92 92 ESE 6 9 29.74 1007 7 11.265408 0 0
3:15 am 03:15 Clear 69 20.5 67 19.2 92 92 ESE 6 9 29.71 1006 7 11.265408 0 0
3:35 am 03:35 Clear 69 20.5 67 19.2 92 92 E 3 6 29.71 1006 7 11.265408 0 0
3:55 am 03:55 Clear with Mist and Fog 68 19.9 66 18.7 93 93 E 5 7 29.71 1006 5 8.04672 0 0
4:15 am 04:15 Clear with Mist and Fog 67 19.7 66 18.7 94 94 NE 5 7 29.71 1006 5 8.04672 0 0
4:35 am 04:35 Clear with Mist and Fog 67 19.4 65 18.4 94 94 NNE 8 13 29.74 1007 4 6.437376 0 0
4:55 am 04:55 Clear 68 19.8 66 18.7 93 93 NE 7 11 29.74 1007 7 11.265408 0 0
5:15 am 05:15 Clear 67 19.6 65 18.3 92 92 NNE 8 13 29.74 1007 7 11.265408 0 0
5:35 am 05:35 Partly Cloudy 67 19.5 65 18.2 92 92 ENE 13 20 29.74 1007 7 11.265408 0 0
5:55 am 05:55 Clear with Nearby Thunderstorms 66 19.1 64 17.9 93 93 ENE 12 19 29.74 1007 7 11.265408 0 0
6:15 am 06:15 Clear 66 19.1 64 17.7 92 92 ENE 13 20 29.74 1007 10 16.09344 0 0
6:35 am 06:35 Clear 66 19 64 17.6 92 92 ENE 10 17 29.77 1008 7 11.265408 0 0
6:55 am 06:55 Sunny 66 19 64 17.6 92 92 E 12 19 29.77 1008 7 11.265408 0 0
7:15 am 07:15 Sunny 66 19 64 17.6 92 92 ENE 12 19 29.77 1008 7 11.265408 0 0
7:35 am 07:35 Mostly Cloudy 67 19.2 64 17.7 91 91 E 12 19 29.77 1008 7 11.265408 0 0
7:55 am 07:55 Mostly Cloudy 67 19.3 64 17.5 89 89 E 12 19 29.77 1008 10 16.09344 0 0
8:15 am 08:15 Mostly Cloudy 67 19.3 64 17.6 90 90 E 12 19 29.77 1008 10 16.09344 0 0
8:35 am 08:35 Cloudy 67 19.5 64 17.7 89 89 E 10 17 29.77 1008 10 16.09344 0 0
8:55 am 08:55 Cloudy 67 19.7 65 18.1 91 91 E 12 19 29.77 1008 7 11.265408 0 0
9:15 am 09:15 Cloudy with Mist and Fog 68 19.9 65 18.3 91 91 E 14 22 29.77 1008 5 8.04672 0 0
9:35 am 09:35 Cloudy with Mist and Fog 68 20 65 18.5 91 91 E 14 22 29.77 1008 5 8.04672 0 0
9:55 am 09:55 Cloudy with Mist and Fog 68 20.2 65 18.6 91 91 ESE 13 20 29.77 1008 5 8.04672 0 0
10:15 am 10:15 Cloudy with Mist and Fog 69 20.5 66 18.7 89 89 ESE 10 17 29.8 1009 5 8.04672 0 0
10:35 am 10:35 Cloudy with Mist and Fog 70 21 66 19.1 89 89 ESE 9 15 29.8 1009 5 8.04672 0 0
10:55 am 10:55 Cloudy with Mist and Fog 71 21.8 67 19.4 86 86 ESE 9 15 29.8 1009 5 8.04672 0 0
11:15 am 11:15 Mostly Cloudy 73 22.7 67 19.6 83 83 SE 10 17 29.77 1008 7 11.265408 0 0
11:35 am 11:35 Partly Cloudy 73 22.7 67 19.6 83 83 SE 8 13 29.74 1007 7 11.265408 0 0
11:55 am 11:55 Mostly Cloudy with Nearby Thunderstorms 74 23.5 68 20 81 81 SE 9 15 29.74 1007 10 16.09344 0 0
12:15 pm 12:15 Mostly Cloudy with Nearby Thunderstorms 75 24 69 20.4 80 80 SSE 8 13 29.74 1007 10 16.09344 0 0
12:35 pm 12:35 Partly Cloudy 77 25 70 21.1 79 79 SSE 8 13 29.71 1006 10 16.09344 0 0
12:55 pm 12:55 Partly Cloudy 79 26 71 21.6 77 77 SE 8 13 29.68 1005 10 16.09344 0 0
1:15 pm 13:15 Mostly Cloudy 80 26.6 71 21.7 75 75 SE 10 17 29.68 1005 10 16.09344 0 0
1:35 pm 13:35 Mostly Cloudy 81 27.1 72 22 74 74 SSE 6 9 29.68 1005 10 16.09344 0 0
1:55 pm 13:55 Partly Cloudy 83 28.1 71 21.9 69 69 SSE 8 13 29.68 1005 10 16.09344 0 0
2:15 pm 14:15 Mostly Cloudy 84 29 71 21.8 65 65 SSE 13 20 29.65 1004 10 16.09344 0 0
2:35 pm 14:35 Partly Cloudy 86 30 71 21.8 61 61 SSE 10 17 29.65 1004 10 16.09344 0 0
2:55 pm 14:55 Partly Cloudy 85 29.7 71 21.4 61 61 S 10 17 29.62 1003 10 16.09344 0 0
3:15 pm 15:15 Mostly Cloudy 86 30 70 21.2 59 59 SSE 9 15 29.62 1003 10 16.09344 0 0
3:35 pm 15:35 Partly Cloudy 86 30.1 69 20.6 57 57 S 10 17 29.62 1003 10 16.09344 0 0
3:55 pm 15:55 Partly Cloudy 89 31.4 69 20.5 52 52 S 10 17 29.62 1003 10 16.09344 0 0
4:15 pm 16:15 Partly Cloudy with Nearby Thunderstorms 89 31.4 69 20.8 53 53 S 10 17 29.59 1002 10 16.09344 0 0
4:35 pm 16:35 Sunny with Nearby Thunderstorms 89 31.8 68 19.9 49 49 S 15 24 29.56 1001 10 16.09344 0 0
4:55 pm 16:55 Partly Cloudy 90 32.1 68 19.8 48 48 SSE 13 20 29.56 1001 10 16.09344 0 0
5:15 pm 17:15 Partly Cloudy 89 31.6 68 19.8 50 50 SSE 13 20 29.59 1002 10 16.09344 0 0
5:35 pm 17:35 Partly Cloudy 88 31.3 69 20.3 52 52 SSE 12 19 29.59 1002 10 16.09344 0 0
5:55 pm 17:55 Partly Cloudy 87 30.3 67 19.6 53 53 SSE 12 19 29.56 1001 10 16.09344 0 0
6:15 pm 18:15 Partly Cloudy 86 29.9 68 20.2 56 56 SSE 14 22 29.56 1001 10 16.09344 0 0
6:35 pm 18:35 Sunny 87 30.3 67 19.7 53 53 SE 10 17 29.56 1001 10 16.09344 0 0
6:55 pm 18:55 Partly Cloudy 86 30.1 67 19.3 52 52 SE 13 20 29.56 1001 10 16.09344 0 0
7:15 pm 19:15 Partly Cloudy 85 29.3 66 19 54 54 SE 9 15 29.56 1001 10 16.09344 0 0
7:35 pm 19:35 Sunny 83 28.5 67 19.5 58 58 ESE 12 19 29.56 1001 10 16.09344 0 0
7:55 pm 19:55 Sunny 82 27.5 68 20.1 64 64 ESE 12 19 29.59 1002 10 16.09344 0 0
8:15 pm 20:15 Sunny 81 27.4 69 20.4 66 66 ESE 13 20 29.62 1003 10 16.09344 0 0
8:35 pm 20:35 Partly Cloudy 79 26.3 70 21 73 73 ENE 12 19 29.62 1003 10 16.09344 0 0
8:55 pm 20:55 Cloudy 74 23.6 63 17.4 68 68 ENE 21 33 29.65 1004 10 16.09344 0 0
9:15 pm 21:15 Cloudy 73 22.5 63 17.3 73 73 NE 15 24 29.68 1005 10 16.09344 0 0
9:35 pm 21:35 Cloudy with Light Thunderstorms 70 21.3 63 17.1 77 77 N 6 9 29.77 1008 10 16.09344 0.01 0.254
9:55 pm 21:55 Cloudy 69 20.3 62 16.7 80 80 ENE 21 33 29.74 1007 10 16.09344 0.01 0.254
10:15 pm 22:15 Cloudy with Nearby Thunderstorms 67 19.7 62 16.6 82 82 ENE 16 26 29.77 1008 10 16.09344 0.01 0.254
10:35 pm 22:35 Cloudy with Heavy Thunderstorms 66 18.8 62 16.7 88 88 NE 18 30 29.77 1008 4 6.437376 0.16 4.064
10:55 pm 22:55 Cloudy with Nearby Thunderstorms 65 18.6 63 17 90 90 NE 14 22 29.83 1010 10 16.09344 0.19 4.826
11:15 pm 23:15 Cloudy 65 18.5 62 16.6 89 89 E 15 24 29.77 1008 10 16.09344 0 0
11:35 pm 23:35 Cloudy 65 18.5 61 16.2 87 87 E 15 24 29.77 1008 10 16.09344 0 0
11:55 pm 23:55 Cloudy 65 18.3 61 16.1 87 87 E 15 24 29.8 1009 10 16.09344 0 0

Powered by AerisWeather